Stations météo

réclame
Mon MeteoGroup
Northolt, Grande-Bretagne (3672): Température de l'air & dewpoint: 15.02.2018 15:00:00 - 21.02.2018 15:00:00 (GMT)Northolt, Grande-Bretagne (3672): Température de l'air -20cm & Température de l'air -100cm: 15.02.2018 15:00:00 - 21.02.2018 15:00:00 (GMT)Northolt, Grande-Bretagne (3672): Vitesse du vent & gusts: 15.02.2018 15:00:00 - 21.02.2018 15:00:00 (GMT)Northolt, Grande-Bretagne (3672): Direction du vent: 15.02.2018 15:00:00 - 21.02.2018 15:00:00 (GMT)Northolt, Grande-Bretagne (3672): reduced air pressure: 15.02.2018 15:00:00 - 21.02.2018 15:00:00 (GMT)Northolt, Grande-Bretagne (3672): visibility: 15.02.2018 15:00:00 - 21.02.2018 15:00:00 (GMT)Northolt, Grande-Bretagne (3672): Quantités de précipitations: 15.02.2018 15:00:00 - 21.02.2018 15:00:00 (GMT)
Date & Time tt [°C] td [°C] tt -20cm [°C] tt -100cm [°C] ff [km/h] ff [knt] fx [km/h] fx [knt] dd ppp [hPa] vv [km] rr [mm]
21.02.2018 15:00:00 6,0 0,0 - - 9 5 - - NNE - 10 -
21.02.2018 14:00:00 6,3 -0,2 - - 11 6 - - NE 1026,8 10 0,0
21.02.2018 13:00:00 6,2 0,0 - - 15 8 - - ENE 1027,5 9 0,0
21.02.2018 12:00:00 5,7 0,4 - - 13 7 - - NE 1028,1 8 0,0
21.02.2018 11:00:00 5,5 0,7 - - 11 6 - - ENE 1028,2 7 0,0
21.02.2018 10:00:00 5,2 0,7 - - 13 7 - - ENE 1028,2 6 0,0
21.02.2018 09:00:00 3,5 1,3 6,4 6,9 11 6 - - ENE 1028,0 5 0,0
21.02.2018 08:00:00 1,7 0,7 - - 8 4 - - NE 1027,6 4,0 0,0
21.02.2018 07:00:00 1,6 0,2 - - 8 4 - - NE 1027,6 4,0 0,0
21.02.2018 06:00:00 2,8 0,9 - - 9 5 - - NE 1027,5 4,7 0,0
21.02.2018 05:00:00 3,1 0,8 - - 13 7 - - NE 1027,3 5 0,0
21.02.2018 04:00:00 3,4 0,6 - - 11 6 - - NE 1027,2 7 0,0
21.02.2018 03:00:00 3,5 0,8 - - 11 6 - - NE 1027,0 10 0,0
21.02.2018 02:00:00 4,6 1,3 - - 13 7 - - NE 1026,8 10 0,0
21.02.2018 01:00:00 4,9 1,4 - - 16 9 - - ENE 1026,6 10 0,0
21.02.2018 00:00:00 5,3 1,5 - - 16 9 - - ENE 1025,8 10 0,0
20.02.2018 23:00:00 5,7 1,7 - - 16 9 - - NE 1025,4 10 0,0
20.02.2018 22:00:00 5,9 2,7 - - 22 12 - - NNE 1024,8 10 0,0
20.02.2018 21:00:00 6,6 3,3 - - 28 15 - - NNE 1023,9 10 0,0
20.02.2018 20:00:00 7,3 3,1 - - 28 15 52 28 NNE 1023,3 10 0,0
20.02.2018 19:00:00 7,7 2,7 - - 26 14 46 25 NNE 1022,7 10 0,0
20.02.2018 18:00:00 8,4 2,2 - - 22 12 48 26 N 1022,1 10 0,0
20.02.2018 17:00:00 8,8 1,5 - - 35 19 52 28 N 1021,5 10 0,0
20.02.2018 16:00:00 8,7 2,6 - - 22 12 - - N 1021,0 10 0,0
20.02.2018 15:00:00 9,1 1,9 - - 22 12 - - N 1020,9 10 0,0
20.02.2018 14:00:00 8,7 2,1 - - 22 12 - - N 1021,3 10 0,0
20.02.2018 13:00:00 8,3 2,2 - - 24 13 - - N 1021,4 10 0,0
20.02.2018 12:00:00 8,6 3,7 - - 28 15 - - N 1021,1 10 0,0
20.02.2018 11:00:00 8,0 4,4 - - 26 14 46 25 N 1020,8 10 0,0
20.02.2018 10:00:00 8,0 6,0 - - 22 12 - - NNW 1020,1 10 0,4
20.02.2018 09:00:00 7,5 6,6 6,0 6,7 22 12 - - NNW 1019,7 4,0 0,4
20.02.2018 08:00:00 8,5 7,2 - - 22 12 - - NNW 1018,9 6 0,0
20.02.2018 07:00:00 8,6 7,1 - - 13 7 - - NNW 1018,6 10 0,0
20.02.2018 06:00:00 8,4 6,9 - - 13 7 - - NNW 1018,2 10 0,0
20.02.2018 05:00:00 8,7 7,7 - - 13 7 - - NNW 1018,1 6 0,0
20.02.2018 04:00:00 8,7 8,1 - - 11 6 - - NNW 1017,9 5 0,0
20.02.2018 03:00:00 8,8 8,2 - - 11 6 - - NNW 1017,6 2,2 0,0
20.02.2018 02:00:00 9,0 8,2 - - 11 6 - - N 1017,2 6 0,0
20.02.2018 01:00:00 9,1 8,3 - - 15 8 - - NNW 1017,2 7 0,0
20.02.2018 00:00:00 9,3 8,5 - - 11 6 - - NNW 1017,2 3,6 0,0
19.02.2018 23:00:00 9,7 8,1 - - 13 7 - - NNW 1016,8 10 0,0
19.02.2018 22:00:00 9,8 8,1 - - 15 8 - - NNW 1016,5 10 0,0
19.02.2018 21:00:00 10,1 8,1 - - 18 10 - - NNW 1016,7 10 0,0
19.02.2018 20:00:00 10,3 8,0 - - 13 7 - - NNW 1016,6 10 0,0
19.02.2018 19:00:00 10,4 8,1 - - 18 10 - - NNW 1016,5 10 0,0
19.02.2018 18:00:00 10,6 8,7 - - 18 10 - - NNW 1016,4 10 0,2
19.02.2018 17:00:00 10,6 9,2 - - 16 9 - - NNW 1016,0 10 0,0
19.02.2018 16:00:00 11,0 9,4 - - 15 8 - - NNW 1015,7 7 0,0
19.02.2018 15:00:00 11,0 9,4 - - 15 8 - - NW 1015,8 10 0,0
19.02.2018 14:00:00 10,7 9,5 - - 15 8 - - NW 1015,9 10 0,0
19.02.2018 13:00:00 9,9 9,3 - - 11 6 - - WNW 1016,2 7 0,0
19.02.2018 12:00:00 9,0 8,7 - - 9 5 - - W 1016,6 4,5 0,2
19.02.2018 11:00:00 8,4 8,0 - - 13 7 - - W 1016,8 3,5 0,2
19.02.2018 10:00:00 7,7 7,3 - - 9 5 - - WSW 1017,0 4,0 0,4
19.02.2018 09:00:00 7,3 6,9 5,4 6,7 - - - - - 1017,1 2,5 0,2
19.02.2018 08:00:00 7,1 6,7 - - 9 5 - - SSW 1017,2 3,0 0,2
19.02.2018 07:00:00 6,8 6,5 - - - - - - - 1017,4 3,5 0,0
19.02.2018 06:00:00 6,6 6,3 - - 0 0 - - N 1017,3 2,4 0,0
19.02.2018 05:00:00 6,4 6,1 - - - - - - - 1017,5 1,4 0,0
19.02.2018 04:00:00 6,4 6,0 - - 4 2 - - SSW 1017,9 2,6 0,2
19.02.2018 03:00:00 6,3 5,9 - - 5 3 - - SSW 1018,2 2,6 0,0
19.02.2018 02:00:00 6,4 5,9 - - 5 3 - - SW 1018,9 2,6 0,0
19.02.2018 01:00:00 6,5 5,9 - - 5 3 - - SSW 1019,2 3,1 0,0
19.02.2018 00:00:00 6,5 5,7 - - 5 3 - - S 1019,7 4,5 0,0
18.02.2018 23:00:00 6,7 5,5 - - 8 4 - - S 1020,0 4,4 0,0
18.02.2018 22:00:00 7,0 5,1 - - 5 3 - - S 1020,3 9 0,0
18.02.2018 21:00:00 7,1 5,0 - - 9 5 - - S 1020,6 10 0,0
18.02.2018 20:00:00 7,4 4,8 - - 11 6 - - SSW 1020,7 10 0,0
18.02.2018 19:00:00 7,7 4,1 - - 9 5 - - S 1021,0 10 0,0
18.02.2018 18:00:00 8,5 3,9 - - 9 5 - - SSW 1020,9 10 0,0
18.02.2018 17:00:00 9,1 3,8 - - 8 4 - - S 1020,8 10 0,0
18.02.2018 16:00:00 9,8 3,8 - - 13 7 - - SSW 1020,8 10 0,0
18.02.2018 15:00:00 9,8 3,5 - - 13 7 - - S 1021,0 10 0,0
18.02.2018 14:00:00 9,7 4,2 - - 11 6 - - S 1021,1 10 0,0
18.02.2018 13:00:00 9,8 4,0 - - 13 7 - - S 1021,4 10 0,0
18.02.2018 12:00:00 10,7 4,6 - - 15 8 - - S 1021,9 10 0,0
18.02.2018 11:00:00 9,4 5,6 - - 13 7 - - S 1022,0 10 0,0
18.02.2018 10:00:00 6,2 5,3 - - 8 4 - - SE 1022,2 9 0,0
18.02.2018 09:00:00 4,2 4,0 5,0 6,7 4 2 - - E 1022,9 8 0,0
18.02.2018 08:00:00 2,4 2,0 - - 2 1 - - E 1022,8 5 0,0
18.02.2018 07:00:00 1,6 1,2 - - 2 1 - - E 1022,9 6 0,0
18.02.2018 06:00:00 0,9 0,2 - - 2 1 - - SE 1022,5 9 0,0
18.02.2018 05:00:00 -0,6 -0,9 - - 5 3 - - ESE 1022,5 8 0,0
18.02.2018 04:00:00 -0,9 -1,4 - - 2 1 - - ENE 1023,0 10 0,0
18.02.2018 03:00:00 -0,2 -0,8 - - 0 0 - - N 1023,0 9 0,0
18.02.2018 02:00:00 0,4 -0,7 - - 0 0 - - N 1023,5 10 0,0
18.02.2018 01:00:00 2,2 1,3 - - 8 4 - - ESE 1023,1 12 0,0
18.02.2018 00:00:00 3,0 1,8 - - 4 2 - - WNW 1023,2 16 0,0
17.02.2018 23:00:00 4,8 2,8 - - 8 4 - - S 1023,6 10 0,0
17.02.2018 22:00:00 5,1 2,7 - - 8 4 - - S 1023,5 10 0,0
17.02.2018 21:00:00 6,0 2,8 - - 9 5 - - SSW 1023,3 10 0,0
17.02.2018 20:00:00 7,1 2,6 - - 9 5 - - SSW 1023,1 17 0,0
17.02.2018 19:00:00 7,4 1,9 - - 9 5 - - SSW 1022,9 10 0,0
17.02.2018 18:00:00 8,0 0,8 - - 5 3 - - SSW 1022,5 10 0,0
17.02.2018 17:00:00 8,5 0,3 - - 8 4 - - WSW 1022,1 10 0,0
17.02.2018 16:00:00 10,3 0,7 - - 11 6 - - SW 1022,1 10 0,0
17.02.2018 15:00:00 11,0 0,5 - - 8 4 - - W 1022,0 10 0,0
17.02.2018 14:00:00 10,5 0,9 - - 11 6 - - SW 1022,1 10 0,0
17.02.2018 13:00:00 10,0 0,2 - - 13 7 - - SSW 1022,3 10 0,0
17.02.2018 12:00:00 9,5 1,7 - - 11 6 - - SW 1022,7 10 0,0
17.02.2018 11:00:00 8,8 3,7 - - 8 4 - - SW 1022,7 10 0,0
17.02.2018 10:00:00 5,4 3,5 - - 2 1 - - SE 1022,3 10 0,0
17.02.2018 09:00:00 1,1 0,3 5,0 6,9 2 1 - - ENE 1022,1 10 0,0
17.02.2018 08:00:00 -1,2 -1,4 - - 4 2 - - NW 1021,9 10 0,0
17.02.2018 07:00:00 -0,5 -0,8 - - 0 0 - - N 1021,7 10 0,0
17.02.2018 06:00:00 -0,7 -1,0 - - 2 1 - - ENE 1021,6 10 0,0
17.02.2018 05:00:00 -0,6 -1,0 - - 2 1 - - NE 1021,6 14 0,0
17.02.2018 04:00:00 -0,9 -1,4 - - 5 3 - - NE 1021,7 10 0,0
17.02.2018 03:00:00 0,0 -0,6 - - 2 1 - - ESE 1021,7 10 0,0
17.02.2018 02:00:00 0,1 -0,7 - - 0 0 - - N 1022,4 10 0,0
17.02.2018 01:00:00 0,9 0,6 - - 2 1 - - ESE 1022,5 16 0,0
17.02.2018 00:00:00 1,6 0,9 - - 2 1 - - ESE 1022,7 10 0,0
16.02.2018 23:00:00 2,7 1,7 - - 5 3 - - ESE 1023,3 16 0,0
16.02.2018 22:00:00 3,2 1,5 - - 4 2 - - ENE 1023,7 10 0,0
16.02.2018 21:00:00 4,6 1,9 - - 8 4 - - S 1023,5 10 0,0
16.02.2018 20:00:00 5,4 1,8 - - 8 4 - - S 1023,7 10 0,0
16.02.2018 19:00:00 6,3 1,0 - - 11 6 - - S 1024,3 10 0,0
16.02.2018 18:00:00 6,9 -0,8 - - 9 5 - - S 1024,5 10 0,0
16.02.2018 17:00:00 8,1 -1,9 - - 8 4 - - SSE 1024,2 10 0,0
16.02.2018 16:00:00 9,2 -1,9 - - 9 5 - - S 1024,3 10 0,0
16.02.2018 15:00:00 10,0 -1,7 - - 8 4 - - S 1024,6 10 0,0
16.02.2018 14:00:00 10,2 -1,5 - - 11 6 - - WSW 1025,0 10 0,0
16.02.2018 13:00:00 9,5 -0,7 - - 11 6 - - W 1025,8 10 0,0
16.02.2018 12:00:00 8,1 2,2 - - 9 5 - - W 1026,4 10 0,0
16.02.2018 11:00:00 6,6 2,0 - - 8 4 - - W 1026,5 10 0,0
16.02.2018 10:00:00 5,0 1,8 - - 9 5 - - SW 1026,3 10 0,0
16.02.2018 09:00:00 1,9 0,8 5,0 6,9 4 2 - - S 1026,0 10 0,0
16.02.2018 08:00:00 0,1 -0,1 - - 2 1 - - SW 1025,3 10 0,0
16.02.2018 07:00:00 0,3 -0,3 - - 4 2 - - WSW 1024,5 10 0,0
16.02.2018 06:00:00 0,5 -0,2 - - 8 4 - - W 1023,9 10 0,0
16.02.2018 05:00:00 0,6 -0,1 - - 9 5 - - W 1023,6 10 0,0
16.02.2018 04:00:00 0,5 -0,6 - - 5 3 - - WSW 1022,9 10 0,0
16.02.2018 03:00:00 1,3 -0,2 - - 4 2 - - WSW 1022,4 10 0,0
16.02.2018 02:00:00 2,0 -0,3 - - 13 7 - - WSW 1021,7 10 0,0
16.02.2018 01:00:00 2,3 -0,4 - - 15 8 - - W 1020,9 10 0,0
16.02.2018 00:00:00 2,8 -0,5 - - 13 7 - - WSW 1020,2 10 0,0
15.02.2018 23:00:00 3,3 -0,8 - - 13 7 - - W 1019,7 10 0,0
15.02.2018 22:00:00 3,6 -0,8 - - 13 7 - - W 1018,7 10 0,0
15.02.2018 21:00:00 3,9 -0,8 - - 9 5 - - WSW 1017,9 10 0,0
15.02.2018 20:00:00 4,6 -0,6 - - 13 7 - - WSW 1017,1 10 0,0
15.02.2018 19:00:00 5,3 -0,7 - - 13 7 - - WSW 1016,4 10 0,0
15.02.2018 18:00:00 5,8 -1,3 - - 15 8 - - WSW 1015,9 10 0,0
15.02.2018 17:00:00 6,6 -0,6 - - 5 3 - - WNW 1014,9 10 0,0
15.02.2018 16:00:00 8,6 -0,9 - - 24 13 - - W 1013,9 10 0,0
15.02.2018 15:00:00 8,3 -2,4 - - 31 17 52 28 W 1013,1 10 0,0

tt = Température de l'air
td = dewpoint
tt -20cm = Température de l'air -20cm
tt -100cm = Température de l'air -100cm
ff = Vitesse du vent
fx = gusts
dd = Direction du vent
ppp = reduced air pressure
vv = visibility
rr = Quantités de précipitations

stations d'obs. à proximité